Location: Chaumontel
(49.1247°N, 2.4324°E)
Time: 08:28:00
(UTC+00:00)

Cosmos 1980 Rocket - Pass Details

Date: 03 February 2023
Orbit: 828 x 851 km, 71.0° (Epoch: 24 March)

Event Time Altitude Azimuth Distance (km) Brightness Sun altitude
Rises 18:43:23 0° 255° (WSW) 3,394 6.9 -18.7°
Reaches altitude 10° 18:46:25 10° 271° (W) 2,466 5.9 -19.2°
Maximum altitude 18:50:40 21° 320° (NW) 1,808 4.3 -19.9°
Drops below altitude 10° 18:54:57 10° 9° (N) 2,485 4.5 -20.6°
Enters shadow 18:56:52 - 20° (NNE) 3,045 4.9 -20.9°
